Harlan, IA

2:06 PM CDT on July 22, 2017 (GMT -0500)
Harlan Municipal

Weather History for KHNR - April, 2013

Change the Weather History Date:

Thursday, April 18, 2013

  Actual Average Record
Temperature  
Mean Temperature 34 °F -  
Max Temperature 37 °F 64 °F 90 °F (1948)
Min Temperature 30 °F 40 °F 19 °F (1953)
Degree Days  
Heating Degree Days 32    
Moisture  
Dew Point 33 °F    
Average Humidity 97    
Maximum Humidity 100    
Minimum Humidity 87    
Precipitation  
Precipitation 0.32 in - - ()
Sea Level Pressure  
Sea Level Pressure 29.81 in    
Wind  
Wind Speed 20 mph (NNW)    
Max Wind Speed 29 mph    
Max Gust Speed 34 mph    
Visibility 7 miles    
Events Rain , Snow    
Averages and records for this station are not official NWS values.
T = Trace of Precipitation, MM = Missing Value Source: NWS Daily Summary

Daily Weather History Graph

Daily Weather History Graph

Search for Another Location

Airport or City:

Trip Planner

Search our weather history database for the weather conditions in past years. The results will help you decide how hot, cold, wet, or windy it might be!

Date:

Astronomy

Apr. 18, 2013 Rise Set
Actual Time 6:36 AM CDT 8:05 PM CDT
Civil Twilight 6:07 AM CDT 8:34 PM CDT
Nautical Twilight 5:32 AM CDT 9:09 PM CDT
Astronomical Twilight 4:55 AM CDT 9:47 PM CDT
Moon 12:48 PM CDT (4/18) 2:21 AM CDT (4/18)
Length of Visible Light 14h 27m
Length of Day
13h 29m
First Quarter, 52% of the Moon is Illuminated
Apr 18
First Quarter
Apr 25
Full
May 2
Last Quarter
May 9
New
May 17
First Quarter

Hourly Weather History & Observations

Time (CDT) Temp. Windchill Dew Point Humidity Pressure Visibility Wind Dir Wind Speed Gust Speed Precip Events Conditions
12:15 AM 37.4 °F 26.9 °F 37.4 °F 100% 29.77 in 5.0 mi North 20.7 mph 27.6 mph N/A   Overcast
12:35 AM 35.6 °F 24.8 °F 35.6 °F 100% 29.81 in 7.0 mi NNW 19.6 mph 26.5 mph N/A   Overcast
12:55 AM 35.6 °F 26.6 °F 35.6 °F 100% 29.87 in 7.0 mi North 13.8 mph 21.9 mph 0.01 in Rain Rain
1:15 AM 35.6 °F 25.9 °F 35.6 °F 100% 29.82 in 5.0 mi North 16.1 mph - 0.03 in Rain Rain
1:35 AM 35.6 °F 24.5 °F 35.6 °F 100% 29.77 in 4.0 mi North 20.7 mph 26.5 mph 0.10 in Rain Rain
1:55 AM 35.6 °F 25.5 °F 35.6 °F 100% 29.81 in 5.0 mi North 17.3 mph 28.8 mph 0.14 in Rain Light Rain
2:15 AM 35.6 °F 24.8 °F 35.6 °F 100% 29.79 in 4.0 mi North 19.6 mph 26.5 mph 0.04 in Rain Light Rain
2:35 AM 35.6 °F 25.5 °F 35.6 °F 100% 29.81 in 7.0 mi North 17.3 mph 27.6 mph 0.06 in Rain Light Rain
2:55 AM 35.6 °F 25.2 °F 35.6 °F 100% 29.78 in 3.0 mi North 18.4 mph 26.5 mph 0.11 in   Overcast
3:15 AM 33.8 °F 23.5 °F 33.8 °F 100% 29.79 in 4.0 mi North 16.1 mph 23.0 mph 0.03 in Rain Light Rain
3:35 AM 33.8 °F 22.5 °F 33.8 °F 100% 29.76 in 10.0 mi North 19.6 mph 25.3 mph 0.05 in Rain Light Rain
3:55 AM 33.8 °F 22.8 °F 33.8 °F 100% 29.72 in 7.0 mi North 18.4 mph 31.1 mph 0.06 in Rain Light Rain
4:35 AM 33.8 °F 22.2 °F 33.8 °F 100% 29.71 in 10.0 mi North 20.7 mph 24.2 mph N/A   Overcast
7:55 PM 32.0 °F 18.4 °F 30.2 °F 93% 29.84 in 10.0 mi WNW 26.5 mph 34.5 mph N/A Snow Light Snow
8:15 PM 32.0 °F 17.9 °F 30.2 °F 93% 29.85 in 10.0 mi WNW 28.8 mph 33.4 mph N/A   Overcast
8:35 PM 32.0 °F 18.6 °F 30.2 °F 93% 29.85 in 10.0 mi WNW 25.3 mph 31.1 mph N/A Snow Light Snow
9:55 PM 30.2 °F 17.1 °F 28.4 °F 93% 29.87 in 4.0 mi WNW 21.9 mph 27.6 mph N/A Snow Light Snow
10:35 PM 30.2 °F 16.8 °F 28.4 °F 93% 29.86 in 5.0 mi WNW 23.0 mph 27.6 mph N/A Snow Light Snow
10:55 PM 30.2 °F 17.1 °F 28.4 °F 93% 29.86 in 7.0 mi WNW 21.9 mph 25.3 mph N/A   Overcast
11:15 PM 30.2 °F 17.4 °F 28.4 °F 93% 29.85 in 7.0 mi WNW 20.7 mph 29.9 mph N/A   Overcast
11:35 PM 30.2 °F 17.1 °F 28.4 °F 93% 29.85 in 7.0 mi WNW 21.9 mph 26.5 mph N/A Snow Light Snow
11:55 PM 32.0 °F 19.5 °F 28.4 °F 87% 29.85 in 10.0 mi WNW 21.9 mph 31.1 mph N/A   Overcast